Regional Weather Roundup
Issued by NWS Little Rock, AR

Home | Current Version | Previous Version | Text Only | Print | Product List | Glossary Off
Versions: 1 2 3 4 5 6 7 8 9 10 11 12 13 14 15 16 17 18 19 20 21 22 23 24 25 26 27 28 29 30 31 32 33 34 35 36 37 38 39 40 41 42 43 44 45 46 47 48 49 50

000
ASUS44 KLZK 012205
RWRLZK

WEATHER ROUNDUP FOR ARKANSAS
NATIONAL WEATHER SERVICE LITTLE ROCK AR
500 PM CDT FRI AUG 01 2014

NOTE: "FAIR" INDICATES FEW OR NO CLOUDS BELOW 12,000 FEET WITH NO
SIGNIFICANT WEATHER AND/OR OBSTRUCTIONS TO VISIBILITY.

ARZ001-003-010-029-012300-
NORTHWEST ARKANSAS

CITY           SKY/WX    TMP DP  RH WIND       PRES   REMARKS
FAYETTEVILLE   SUNNY     80  63  55 CALM      30.07F
FORT SMITH     CLOUDY    80  65  59 E6        30.04F
HARRISON       MOSUNNY   78  63  59 VRB6      30.08F
BENTONVILLE    MOSUNNY   82  61  47 E5        30.08F
ROGERS         SUNNY     81  60  48 SE9       30.08F
SILOAM SPGS    SUNNY     81  59  47 CALM      30.07F
HIGHFILL       SUNNY     83  59  44 NE3       30.07S
SPRINGDALE     MOSUNNY   81  63  54 NE3       30.09F
$$

ARZ004-005-016-012300-
NORTH CENTRAL ARKANSAS

CITY           SKY/WX    TMP DP  RH WIND       PRES   REMARKS
BATESVILLE     MOSUNNY   79  66  65 CALM      30.05S
FLIPPIN        SUNNY     81  63  54 CALM      30.07S
MTN HOME       MOSUNNY   76  66  71 SE5       30.06S
$$

ARZ040-041-012300-
WEST CENTRAL ARKANSAS

CITY           SKY/WX    TMP DP  RH WIND       PRES   REMARKS
MENA           CLOUDY    75  68  78 CALM      30.06F
MOUNT IDA      CLOUDY    74  67  78 CALM      30.04R
$$

ARZ009-017-025-026-028-012300-
NORTHEAST ARKANSAS

CITY           SKY/WX    TMP DP  RH WIND       PRES   REMARKS
CORNING        LGT RAIN  81  64  57 CALM      30.04F
JONESBORO      PTSUNNY   82  64  54 E6        30.03S
NEWPORT        CLOUDY    81  68  64 E7        30.05S
WALNUT RIDGE   MOSUNNY   81  46  30 NW5       30.03S
BLYTHEVILLE    MOSUNNY   85  63  47 VRB6      30.03S HX  86
$$

ARZ022-023-033-042-044-012300-
CENTRAL ARKANSAS

CITY           SKY/WX    TMP DP  RH WIND       PRES   REMARKS
LITTLE ROCK    CLOUDY    78  66  66 NE6       30.03F
N LITTLE ROCK  CLOUDY    77  69  78 NE6       30.03F
JACKSONVILLE   PTSUNNY   77  69  76 N5        30.04S
SEARCY         PTSUNNY   78  68  71 N5        30.05S
HOT SPRINGS    CLOUDY    72  67  84 S7        30.05S
RUSSELLVILLE   CLOUDY    80  64  58 N3        30.04F
CLINTON        PTSUNNY   81  66  61 NW3       30.05F
$$

ARZ036-012300-
EAST ARKANSAS

CITY           SKY/WX    TMP DP  RH WIND       PRES   REMARKS
WEST MEMPHIS   CLOUDY    83  66  56 N7        30.01F HX  85
$$

ARZ050-053-066-070-073-012300-
SOUTHWEST ARKANSAS

CITY           SKY/WX    TMP DP  RH WIND       PRES   REMARKS
ARKADELPHIA    CLOUDY    73  70  91 VRB3      30.04S
CAMDEN         LGT RAIN  68  66  94 NE7       30.03S
TEXARKANA      CLOUDY    72  68  87 NE6       30.02S
EL DORADO      LGT RAIN  69  68  96 N6        30.01F FOG
DE QUEEN       CLOUDY    76  67  73 E6        30.01F
$$

ARZ056-057-069-012300-
SOUTHEAST ARKANSAS

CITY           SKY/WX    TMP DP  RH WIND       PRES   REMARKS
PINE BLUFF     CLOUDY    72  68  87 W5        30.03F
STUTTGART      CLOUDY    77  68  73 CALM      30.03S
MONTICELLO     LGT RAIN  72  69  90 CALM      30.01F FOG

$$





USA.gov is the U.S. government's official web portal to all federal, state and local government web resources and services.